Location: Unspecified
(43.4354°N, 0.0000°E)
Time: 18:55:40
(UTC+00:00)

Courier 1B - Pass Details

Date: 18 June 2019
Orbit: 963 x 1209 km, 28.3° (Epoch: 14 July)

Event Time Altitude Azimuth Distance (km) Brightness Sun altitude
Rises 20:08:14 0° 228° (SW) 3,959 10.8 -4.4°
Reaches altitude 10° 20:11:41 10° 214° (SW) 3,040 10.0 -4.9°
Maximum altitude 20:17:09 22° 167° (SSE) 2,329 9.1 -5.7°
Drops below altitude 10° 20:22:45 10° 121° (ESE) 3,129 9.5 -6.5°
Enters shadow 20:24:10 - 114° (ESE) 3,490 9.8 -6.7°
Sets 20:26:21 0° 107° (ESE) 4,106 - -7.0°
